Find Meteor

NORAD ID: 9903 Int'l Des: 1977-024 Owner: GUKOSR/GMS Country: SU operational
LEOCIRCULARPOLAR

实时位置

正在加载3D地球...

关于 Meteor

正在加载描述...

即将过境

Passes for default location (London). Set your location on the main map for personalized predictions.

高度历史

Loading altitude history...

两行轨道根数

1 9903U 77024A 26122.16861381 .00000087 00000-0 42536-4 0 9997
2 9903 81.2761 182.1825 0039722 135.4772 224.9601 14.08735092521075
Epoch: May 2, 2026 • Age: 8 hours

当前状态

高度 915.0 km
速度 7.38 km/s
星下点 -76.50°S, 99.1°E
类型 other

Most Searched